When you browse on this site, cookies collect data to enhance your experience and personalize the content and advertising you see.
Visit our Privacy Policy to learn more. By continuing to use the site, you agree to this use of cookies and data.
  • în România
  • Lista ţărilor
  • Pe 7 zile
  • Temperatura apei
  • Meteo pe hartă
  • Widget-uri
  • user-avatar
    Intrare

    Meteo pe oră la Hudzhan

    Astăzi, 6 Aprilie, Luni

    Timp Temperatura Precipitaţii Vânt Presiune Umiditate
    00:00 +16°C° 0 mm 1 m/s 722 mmHg 70%
    01:00 +16°C° 0 mm 1 m/s 721 mmHg 73%
    02:00 +15°C° 0 mm 1 m/s 721 mmHg 76%
    03:00 +15°C° 0 mm 1 m/s 721 mmHg 76%
    04:00 +14°C° 0 mm 1 m/s 721 mmHg 76%
    05:00 +14°C° 0 mm 1 m/s 721 mmHg 77%
    06:00 +15°C° 0 mm 1 m/s 721 mmHg 74%
    07:00 +16°C° 0 mm 1 m/s 721 mmHg 71%
    08:00 +18°C° 0 mm 1 m/s 721 mmHg 68%
    09:00 +19°C° 0 mm 1 m/s 721 mmHg 64%
    10:00 +20°C° 0 mm 1 m/s 721 mmHg 60%
    11:00 +21°C° 0 mm 1 m/s 721 mmHg 57%
    12:00 +22°C° 0 mm 1 m/s 721 mmHg 52%
    13:00 +23°C° 0 mm 1 m/s 721 mmHg 48%
    14:00 +24°C° 0 mm 1 m/s 720 mmHg 44%
    15:00 +24°C° 0 mm 1 m/s 720 mmHg 43%
    16:00 +24°C° 0 mm 2 m/s 720 mmHg 41%
    17:00 +25°C° 0 mm 2 m/s 720 mmHg 40%
    18:00 +24°C° 0.1 mm 2 m/s 720 mmHg 44%
    19:00 +21°C° 0.1 mm 2 m/s 720 mmHg 49%
    20:00 +20°C° 0.1 mm 2 m/s 720 mmHg 54%
    21:00 +21°C° 0 mm 1 m/s 720 mmHg 56%
    22:00 +20°C° 0 mm 1 m/s 720 mmHg 58%
    23:00 +19°C° 0 mm 1 m/s 720 mmHg 60%

    Mâine, 7 Aprilie, Marţi

    Timp Temperatura Precipitaţii Vânt Presiune Umiditate
    00:00 +19°C° 0 mm 1 m/s 720 mmHg 61%
    01:00 +17°C° 0 mm 2 m/s 719 mmHg 63%
    02:00 +17°C° 0 mm 2 m/s 719 mmHg 64%
    03:00 +16°C° 0 mm 2 m/s 719 mmHg 68%
    04:00 +16°C° 0 mm 2 m/s 719 mmHg 71%
    05:00 +15°C° 0 mm 2 m/s 719 mmHg 75%
    06:00 +16°C° 0 mm 2 m/s 720 mmHg 72%
    07:00 +17°C° 0 mm 2 m/s 720 mmHg 69%
    08:00 +17°C° 0 mm 2 m/s 721 mmHg 66%
    09:00 +19°C° 0 mm 2 m/s 721 mmHg 62%
    10:00 +20°C° 0 mm 2 m/s 721 mmHg 57%
    11:00 +21°C° 0 mm 3 m/s 721 mmHg 52%
    12:00 +22°C° 0.3 mm 4 m/s 721 mmHg 49%
    13:00 +22°C° 0.3 mm 5 m/s 721 mmHg 46%
    14:00 +23°C° 0.3 mm 7 m/s 721 mmHg 43%
    15:00 +22°C° 0.2 mm 7 m/s 721 mmHg 49%
    16:00 +20°C° 0.2 mm 7 m/s 720 mmHg 54%
    17:00 +18°C° 0.2 mm 8 m/s 720 mmHg 60%
    18:00 +17°C° 0.6 mm 6 m/s 721 mmHg 65%
    19:00 +16°C° 0.6 mm 5 m/s 721 mmHg 70%
    20:00 +16°C° 0.6 mm 3 m/s 721 mmHg 75%
    21:00 +14°C° 1.2 mm 4 m/s 722 mmHg 79%
    22:00 +13°C° 1.2 mm 5 m/s 722 mmHg 82%
    23:00 +11°C° 1.2 mm 6 m/s 722 mmHg 86%

    Poimâine, 8 Aprilie, Miercuri

    Timp Temperatura Precipitaţii Vânt Presiune Umiditate
    00:00 +12°C° 0.4 mm 5 m/s 721 mmHg 85%
    01:00 +10°C° 0.4 mm 5 m/s 721 mmHg 84%
    02:00 +10°C° 0.4 mm 5 m/s 721 mmHg 83%
    03:00 +9°C° 0 mm 5 m/s 721 mmHg 80%
    04:00 +8°C° 0 mm 5 m/s 721 mmHg 77%
    05:00 +8°C° 0 mm 6 m/s 721 mmHg 74%
    06:00 +7°C° 0 mm 5 m/s 721 mmHg 77%
    07:00 +7°C° 0 mm 4 m/s 721 mmHg 81%
    08:00 +7°C° 0 mm 3 m/s 721 mmHg 84%
    09:00 +6°C° 0.2 mm 4 m/s 721 mmHg 85%
    10:00 +6°C° 0.2 mm 4 m/s 721 mmHg 86%
    11:00 +6°C° 0.2 mm 4 m/s 721 mmHg 87%
    12:00 +6°C° 0.1 mm 4 m/s 721 mmHg 87%
    13:00 +6°C° 0.1 mm 4 m/s 721 mmHg 87%
    14:00 +6°C° 0.1 mm 4 m/s 721 mmHg 87%
    15:00 +6°C° 0.2 mm 4 m/s 720 mmHg 88%
    16:00 +6°C° 0.2 mm 4 m/s 720 mmHg 90%
    17:00 +5°C° 0.2 mm 5 m/s 720 mmHg 91%
    18:00 +5°C° 0.7 mm 4 m/s 720 mmHg 91%
    19:00 +5°C° 0.7 mm 4 m/s 721 mmHg 92%
    20:00 +4°C° 0.7 mm 4 m/s 721 mmHg 92%
    21:00 +4°C° 0.6 mm 4 m/s 721 mmHg 93%
    22:00 +4°C° 0.6 mm 4 m/s 721 mmHg 93%
    23:00 +4°C° 0.6 mm 4 m/s 722 mmHg 93%

    9 Aprilie, Joi

    Timp Temperatura Precipitaţii Vânt Presiune Umiditate
    00:00 +2°C° 0.9 mm 5 m/s 722 mmHg 94%
    01:00 +2°C° 0.9 mm 5 m/s 722 mmHg 94%
    02:00 +2°C° 0.9 mm 5 m/s 723 mmHg 95%
    03:00 +2°C° 0.7 mm 5 m/s 723 mmHg 95%
    04:00 +1°C° 0.7 mm 5 m/s 724 mmHg 95%
    05:00 +1°C° 0.7 mm 5 m/s 724 mmHg 95%
    06:00 +1°C° 0.7 mm 4 m/s 725 mmHg 95%
    07:00 +1°C° 0.7 mm 4 m/s 726 mmHg 95%
    08:00 +1°C° 0.7 mm 4 m/s 726 mmHg 95%
    09:00 +3°C° 0.4 mm 3 m/s 727 mmHg 93%
    10:00 +3°C° 0.4 mm 3 m/s 728 mmHg 92%
    11:00 +3°C° 0.4 mm 3 m/s 729 mmHg 90%
    12:00 +4°C° 0.1 mm 3 m/s 729 mmHg 83%
    13:00 +5°C° 0.1 mm 3 m/s 729 mmHg 75%
    14:00 +7°C° 0.1 mm 3 m/s 729 mmHg 68%
    15:00 +7°C° 0 mm 2 m/s 728 mmHg 65%
    16:00 +8°C° 0 mm 2 m/s 728 mmHg 61%
    17:00 +9°C° 0 mm 1 m/s 728 mmHg 58%
    18:00 +8°C° 0 mm 1 m/s 728 mmHg 62%
    19:00 +8°C° 0 mm 1 m/s 728 mmHg 66%
    20:00 +7°C° 0 mm 1 m/s 728 mmHg 70%
    21:00 +7°C° 0 mm 1 m/s 727 mmHg 70%
    22:00 +7°C° 0 mm 1 m/s 727 mmHg 70%
    23:00 +5°C° 0 mm 2 m/s 726 mmHg 70%

    10 Aprilie, Vineri

    Timp Temperatura Precipitaţii Vânt Presiune Umiditate
    00:00 +5°C° 0 mm 2 m/s 726 mmHg 70%
    01:00 +5°C° 0 mm 2 m/s 725 mmHg 70%
    02:00 +5°C° 0 mm 2 m/s 724 mmHg 70%
    03:00 +5°C° 0 mm 3 m/s 724 mmHg 69%
    04:00 +5°C° 0 mm 3 m/s 723 mmHg 69%
    05:00 +5°C° 0 mm 3 m/s 722 mmHg 69%
    06:00 +6°C° 0 mm 4 m/s 722 mmHg 66%
    07:00 +7°C° 0 mm 5 m/s 722 mmHg 63%
    08:00 +8°C° 0 mm 5 m/s 721 mmHg 60%
    09:00 +9°C° 0 mm 6 m/s 721 mmHg 54%
    10:00 +11°C° 0 mm 6 m/s 721 mmHg 49%
    11:00 +13°C° 0 mm 6 m/s 721 mmHg 43%
    12:00 +14°C° 0 mm 5 m/s 721 mmHg 41%
    13:00 +15°C° 0 mm 4 m/s 721 mmHg 39%
    14:00 +17°C° 0 mm 3 m/s 721 mmHg 36%
    15:00 +16°C° 0 mm 3 m/s 721 mmHg 37%
    16:00 +16°C° 0 mm 2 m/s 721 mmHg 38%
    17:00 +16°C° 0 mm 2 m/s 721 mmHg 40%
    18:00 +15°C° 0 mm 2 m/s 721 mmHg 44%
    19:00 +14°C° 0 mm 2 m/s 721 mmHg 49%
    20:00 +13°C° 0 mm 2 m/s 721 mmHg 54%
    21:00 +13°C° 0 mm 1 m/s 721 mmHg 54%
    22:00 +13°C° 0 mm 1 m/s 721 mmHg 55%
    23:00 +13°C° 0 mm 1 m/s 721 mmHg 56%

    11 Aprilie, Sâmbătă

    Timp Temperatura Precipitaţii Vânt Presiune Umiditate
    00:00 +13°C° 0 mm 1 m/s 721 mmHg 56%
    01:00 +12°C° 0 mm 2 m/s 722 mmHg 55%
    02:00 +12°C° 0 mm 2 m/s 722 mmHg 55%
    03:00 +12°C° 0 mm 2 m/s 722 mmHg 58%
    04:00 +11°C° 0 mm 1 m/s 722 mmHg 61%
    05:00 +11°C° 0 mm 1 m/s 722 mmHg 64%
    06:00 +11°C° 0 mm 1 m/s 722 mmHg 63%
    07:00 +12°C° 0 mm 1 m/s 723 mmHg 61%
    08:00 +12°C° 0 mm 2 m/s 723 mmHg 59%
    09:00 +14°C° 0 mm 2 m/s 723 mmHg 54%
    10:00 +14°C° 0 mm 3 m/s 723 mmHg 49%
    11:00 +17°C° 0 mm 4 m/s 723 mmHg 43%
    12:00 +18°C° 0 mm 4 m/s 722 mmHg 40%
    13:00 +19°C° 0 mm 5 m/s 722 mmHg 36%
    14:00 +21°C° 0 mm 5 m/s 722 mmHg 32%
    15:00 +20°C° 0 mm 5 m/s 722 mmHg 36%
    16:00 +20°C° 0 mm 5 m/s 722 mmHg 39%
    17:00 +19°C° 0 mm 5 m/s 721 mmHg 43%
    18:00 +16°C° 0 mm 5 m/s 722 mmHg 57%
    19:00 +14°C° 0 mm 5 m/s 722 mmHg 72%
    20:00 +12°C° 0 mm 4 m/s 722 mmHg 86%
    21:00 +12°C° 0.3 mm 3 m/s 722 mmHg 86%
    22:00 +12°C° 0.3 mm 3 m/s 722 mmHg 85%
    23:00 +13°C° 0.3 mm 2 m/s 722 mmHg 84%
    Arată mai mult